Tracking 18852 objects as of 23-Nov-2017
HD Live streaming from Space Station
objects crossing your sky now

SL-16 R/B

Track SL-16 R/B now!
10-day predictions
SL-16 R/B is classified as:


NORAD ID: 23343
Int'l Code: 1994-074B
Perigee: 642.9 km
Apogee: 650.8 km
Inclination: 98.1 °
Period: 97.5 minutes
Semi major axis: 7017 km
RCS: 8.9483 m2 (large)
Launch date: November 4, 1994
Source: Commonwealth of Independent States (former USSR) (CIS)
Launch site: TYURATAM MISSILE AND SPACE COMPLEX (TTMTR)

Note: This is a ROCKET BODY
aabbcc
Your satellite tracking list
Your tracking list is empty




NASA's NSSDC Master Catalog

Two Line Element Set (TLE):
1 23343U 94074B   17326.63624411 -.00000005 +00000-0 +68521-5 0  9998
2 23343 098.1345 005.1380 0005610 288.4546 183.6698 14.76717128240004
Source of the keplerian elements: AFSPC